Location: Firdgum
(53.2488°N, 5.5615°E)
Time: 11:23:13
(UTC+00:00)

Okean 3 - Pass Details

Date: 08 December 2019
Orbit: 577 x 600 km, 82.5° (Epoch: 24 January)

Event Time Altitude Azimuth Distance (km) Brightness Sun altitude
Exits shadow 05:43:45 - 349° (NNW) 2,100 6.0 -15.9°
Reaches altitude 10° 05:44:14 10° 349° (N) 1,905 5.8 -15.9°
Maximum altitude 05:48:27 89° 251° (WSW) 588 3.4 -15.3°
Drops below altitude 10° 05:52:38 10° 171° (S) 1,897 6.4 -14.7°
Sets 05:54:49 0° 171° (S) 2,794 7.3 -14.4°
